Wind_Speed
20 21 20 20 20 21 21 21 20 20 20 19 18 20 20 20 19 18 18 19 20 20 21 21 20 19 19 20 20 19 18 18 17 16 15 14 14 14 13 13 12 12 12 12 12 11 10 11 12 11 10 10 11 13 15 16 17 17 17 18 19 20 22
19 20 22 22 21 22 24 23 22 23 22 21 21 22 21 20 19 18 18 19 20 21 21 22 22 21 20 21 22 22 21 21 20 18 17 16 16 15 15 14 14 13 13 13 13 12 11 11 11 12 12 11 11 13 14 15 16 16 17 19 20 22 24
17 17 21 24 23 23 23 23 24 25 23 22 23 22 20 19 19 18 19 19 19 20 20 21 22 22 22 23 23 23 23 23 22 21 20 19 19 18 16 15 15 14 14 13 13 12 12 11 11 12 12 12 12 13 13 14 16 17 19 21 22 24 25
16 14 17 23 24 23 22 23 25 24 23 22 23 22 20 19 19 18 18 18 18 19 19 21 23 24 25 24 24 24 25 24 24 23 23 22 21 20 18 16 16 15 14 14 13 12 12 12 11 11 12 12 13 13 13 14 16 18 20 22 24 25 26
14 14 15 19 21 21 22 24 25 23 21 22 24 23 20 19 18 17 17 18 18 19 20 21 23 24 25 25 25 25 26 25 25 24 24 24 23 22 20 18 18 16 15 14 13 12 13 12 11 11 12 13 14 13 14 15 18 20 22 23 24 25 26
12 14 13 16 18 20 22 24 24 23 22 24 24 22 20 18 17 16 17 18 19 20 20 21 21 22 24 24 25 25 26 25 25 25 25 25 24 23 22 20 18 16 16 15 13 13 13 12 11 12 13 14 15 15 16 17 19 21 22 23 24 26 27
13 15 13 13 15 17 21 23 23 22 23 24 24 22 20 18 16 16 17 18 19 20 20 20 20 21 22 23 24 24 24 23 23 23 23 23 23 22 22 20 18 16 16 15 14 13 13 12 12 13 14 14 15 16 18 19 20 21 22 24 26 27 29
15 15 13 13 13 13 18 21 22 23 24 25 24 22 19 17 16 16 16 17 19 19 19 19 20 21 21 22 22 22 22 22 21 21 20 20 20 20 20 19 18 16 15 15 15 14 13 12 12 13 14 14 15 17 19 20 20 20 22 25 27 29 30
17 18 16 16 16 14 17 22 24 24 25 26 24 20 18 17 18 16 16 17 18 18 18 18 19 21 21 21 21 21 21 20 20 19 18 19 19 19 19 19 17 16 16 16 15 14 13 12 13 14 14 14 15 17 18 19 20 22 24 26 27 29 30
19 20 20 20 20 18 18 23 27 27 28 27 23 19 16 17 18 18 17 17 18 17 17 18 19 20 20 20 20 20 19 18 18 17 17 18 18 18 18 18 17 17 17 16 15 15 13 12 13 13 14 15 15 16 17 18 21 23 25 27 28 29 30
19 20 22 22 24 23 22 25 30 30 29 27 23 18 15 16 19 20 19 18 18 18 18 18 19 19 19 20 20 19 18 18 17 17 17 18 18 18 18 18 17 17 17 16 16 15 14 13 13 14 14 15 15 15 17 19 21 23 25 27 28 29 30
21 22 24 26 26 26 24 26 32 33 31 27 23 19 17 18 20 21 21 20 20 20 20 20 20 20 20 20 20 19 19 18 17 17 18 20 19 18 18 18 18 18 17 17 16 15 14 14 14 14 15 14 14 16 17 19 21 23 25 27 28 29 30
22 23 25 28 28 26 24 24 29 33 32 29 26 22 20 21 22 23 25 23 22 21 21 21 21 21 21 21 20 20 20 19 19 19 21 21 21 20 19 19 19 18 18 17 16 14 14 14 14 14 14 14 15 16 18 19 21 22 25 27 28 29 31
28 27 26 26 27 26 26 24 26 31 32 30 28 25 23 22 23 25 27 26 24 24 23 23 22 22 21 21 21 20 21 21 21 22 23 23 23 22 21 20 19 19 19 17 15 15 15 15 14 14 14 14 15 17 18 20 21 22 25 27 29 31 32
32 29 26 27 28 28 28 26 27 33 33 31 30 28 26 25 24 25 28 29 28 26 25 25 24 23 21 21 22 21 21 23 23 24 25 25 24 23 22 21 20 20 18 16 16 17 16 15 14 14 15 15 16 18 19 21 22 24 26 28 30 32 33
28 25 26 28 28 27 28 27 29 34 35 33 33 32 29 27 25 24 26 30 31 29 27 27 26 24 22 21 22 23 23 24 24 25 25 25 24 24 23 22 21 20 18 17 17 17 16 15 15 15 16 17 17 19 20 22 23 25 28 29 31 33 34
25 26 27 26 25 26 27 27 30 35 36 35 35 33 30 28 26 25 25 28 31 31 29 28 27 25 23 22 22 24 26 26 25 25 25 24 25 25 25 24 22 20 19 19 18 17 17 16 15 16 17 17 18 20 21 23 25 27 29 31 33 35 36
29 33 31 27 27 30 30 30 33 36 37 37 35 33 31 30 28 27 27 27 29 30 29 29 28 27 25 24 25 26 27 27 26 25 24 25 26 26 26 25 23 21 20 19 19 18 17 16 16 17 17 18 20 22 23 25 27 29 32 34 36 37 37
36 40 40 37 34 32 31 33 35 37 37 37 36 34 33 33 32 30 29 28 28 30 31 31 30 29 28 28 28 27 28 29 28 26 24 24 26 28 28 26 24 22 21 20 21 20 18 17 17 17 18 19 21 23 25 27 29 31 34 37 39 40 39
41 44 45 45 42 37 35 36 36 35 35 35 35 35 35 37 37 36 33 31 31 33 35 34 32 32 31 31 30 29 29 30 30 27 25 25 27 29 29 27 25 23 23 23 22 20 18 17 17 17 18 20 22 24 27 29 31 33 35 38 41 42 42
44 46 47 47 45 41 39 38 36 34 34 35 36 37 40 41 42 41 40 38 36 36 36 36 35 34 34 33 32 32 32 32 31 29 26 27 29 31 30 28 26 25 24 23 22 20 18 17 17 18 19 22 24 26 28 30 33 34 36 39 42 45 45
44 46 46 46 45 43 40 39 38 37 37 38 38 40 44 45 45 45 45 44 41 39 39 39 38 37 37 36 34 34 33 33 33 31 29 28 31 32 30 29 27 25 25 23 21 20 18 17 18 19 21 23 25 27 30 33 35 36 38 41 44 48 48
48 47 47 47 46 45 44 43 42 42 42 43 44 45 47 47 47 48 49 48 46 43 42 43 43 40 38 38 36 35 35 35 35 34 31 29 31 32 30 29 27 26 25 23 21 20 18 18 19 21 23 25 27 30 33 35 36 38 40 43 47 50 49
51 50 50 50 49 47 47 47 47 46 46 48 50 51 50 49 49 51 51 48 46 44 43 44 44 41 40 40 38 36 36 37 37 36 33 30 30 31 30 29 28 27 25 24 22 20 19 20 21 22 24 26 29 33 35 36 38 40 41 43 45 46 42
54 53 52 52 51 48 47 48 49 49 50 52 53 53 53 51 50 50 50 47 46 45 43 43 42 41 41 41 40 39 38 38 38 37 35 32 30 30 30 30 29 27 26 24 22 21 21 21 22 24 26 28 31 34 35 37 38 39 39 41 41 40 38
57 57 56 55 54 52 50 51 52 52 53 54 54 53 53 52 50 49 49 48 48 47 46 43 42 42 43 44 44 42 39 39 39 39 37 35 32 30 31 31 30 28 27 26 25 23 23 23 25 26 28 30 33 33 34 37 38 37 39 42 41 39 39
53 58 60 60 58 57 55 55 56 56 56 56 55 53 53 54 54 53 51 50 50 50 49 46 44 44 46 47 47 46 43 41 40 40 39 37 35 33 33 32 31 30 30 29 27 25 25 27 28 28 30 32 33 33 35 37 38 39 41 43 42 41 41
45 51 56 60 62 62 61 59 60 59 58 57 56 55 55 56 57 56 55 55 55 52 50 50 49 49 50 50 50 49 47 44 42 42 42 41 39 37 36 34 32 31 32 32 30 29 30 30 30 30 32 34 34 35 37 39 40 41 43 43 44 45 45
44 45 48 52 56 59 60 60 61 62 62 62 61 60 59 59 59 58 57 58 57 55 54 55 55 54 53 53 53 52 50 47 45 44 44 45 44 41 38 36 34 34 35 35 34 33 34 33 33 33 34 36 37 37 39 41 42 43 44 45 46 47 48
45 46 47 48 49 50 50 51 51 54 59 64 68 68 67 65 64 62 61 60 59 58 58 58 59 59 57 56 56 54 52 48 46 45 45 47 47 45 42 40 38 37 38 38 36 37 36 35 35 36 36 38 39 40 41 43 44 45 45 46 47 49 50
47 47 48 50 51 50 49 48 47 47 49 55 62 68 72 73 72 70 68 66 64 64 63 62 63 63 61 58 57 57 54 50 48 47 47 48 50 49 46 43 42 41 41 40 39 38 37 37 38 38 38 40 41 43 44 45 46 48 48 48 49 50 51
50 51 51 52 53 53 52 51 50 49 48 49 53 58 64 70 73 75 75 74 72 70 69 68 68 67 64 61 61 62 59 54 51 51 50 50 52 53 50 47 46 45 44 42 41 40 39 39 40 40 40 42 44 45 46 47 48 49 49 48 49 50 51
51 53 55 56 56 56 55 54 54 53 51 50 50 51 54 59 63 67 71 74 75 75 75 75 74 73 71 68 66 67 66 60 55 55 55 52 54 56 54 50 49 48 46 45 43 42 41 42 42 42 43 44 45 46 47 49 50 50 48 47 47 47 45
49 51 53 55 57 58 58 58 58 58 56 55 53 51 51 52 55 58 61 63 67 71 75 78 79 76 76 75 71 71 73 67 59 58 58 55 56 59 57 53 50 49 48 47 45 44 44 44 44 44 44 44 46 48 49 51 50 47 47 47 46 42 38
49 49 50 52 54 56 58 59 59 60 60 59 56 55 55 56 58 60 61 61 61 63 68 76 78 73 71 73 74 75 76 71 63 60 60 59 60 62 59 54 52 50 50 49 47 46 46 46 45 45 45 46 48 50 51 52 49 46 46 47 43 38 36
50 50 50 50 51 52 54 54 55 56 57 57 56 57 59 62 62 62 63 65 65 63 63 69 74 71 66 66 68 71 73 70 65 64 65 63 63 62 58 54 52 52 51 50 48 47 47 47 46 46 47 48 50 51 51 50 47 45 46 44 39 37 36
49 49 50 50 50 51 51 52 52 52 53 53 54 56 57 58 59 60 62 64 65 66 66 68 71 71 67 63 62 62 64 66 67 66 63 60 60 59 55 52 52 52 50 48 48 48 48 47 47 47 48 51 53 52 49 45 43 44 44 41 38 38 37
48 49 48 49 50 50 50 50 50 50 50 50 51 52 52 52 52 54 57 60 61 61 64 67 68 67 63 58 56 57 58 60 61 60 55 54 56 54 51 51 52 51 49 48 48 48 48 47 47 48 51 54 53 48 43 41 42 42 41 39 39 38 35
Wind_Direction
257 247 239 236 236 235 235 237 238 238 238 238 237 239 240 241 242 243 247 250 250 249 248 247 246 245 245 246 245 243 242 243 243 241 242 243 245 248 250 253 259 267 274 280 282 280 276 278 288 299 306 313 319 322 326 328 328 329 332 335 337 338 338
264 255 243 238 236 234 234 236 237 237 237 235 236 239 240 242 245 246 249 252 254 254 251 249 247 244 243 244 244 244 242 243 245 244 243 244 245 246 248 251 256 262 269 275 278 276 273 276 287 297 304 312 320 324 325 325 325 327 330 333 336 336 335
268 267 253 243 237 235 234 234 235 237 237 234 235 238 240 244 248 250 251 253 255 255 252 248 244 242 240 240 243 243 242 243 245 246 245 244 245 246 248 250 253 258 266 270 271 271 271 274 284 293 302 311 319 322 322 320 322 325 328 330 332 332 331
267 271 257 244 238 235 231 230 234 238 238 234 235 238 239 244 249 251 252 254 254 253 250 245 242 240 239 238 239 240 241 242 243 245 246 246 248 249 249 249 251 256 262 264 265 265 267 273 281 290 299 307 313 316 315 316 319 323 327 328 329 329 329
274 271 251 242 240 236 231 232 236 239 237 234 234 238 241 245 251 256 258 258 256 253 250 248 246 244 242 241 240 240 240 241 243 245 247 248 248 248 248 247 249 252 257 259 257 257 262 271 281 290 298 304 307 309 309 313 319 323 327 328 328 329 330
282 279 257 244 246 242 237 238 240 239 234 231 232 236 240 244 251 259 263 262 260 257 254 252 250 247 244 241 239 239 239 240 243 244 245 246 245 245 246 246 246 249 252 251 246 247 256 267 279 288 295 301 303 305 308 313 320 324 326 328 330 333 335
274 282 273 251 248 245 238 236 239 237 230 226 228 231 233 238 246 255 262 266 263 260 257 253 251 248 245 241 238 238 238 238 239 239 239 241 240 240 241 242 243 244 245 241 237 240 250 262 274 282 290 297 300 304 310 315 320 324 326 328 332 336 339
260 271 270 247 241 245 243 240 241 239 233 229 227 229 231 235 242 251 261 266 264 260 256 252 251 249 246 243 239 237 236 234 233 233 232 233 235 235 235 237 237 235 233 232 233 238 246 258 269 275 282 289 297 305 311 316 319 322 325 328 331 335 339
247 255 259 249 247 257 259 252 245 241 240 237 232 228 230 234 240 247 254 258 259 256 252 248 248 249 248 245 241 237 235 233 231 228 226 227 229 230 229 229 226 220 218 224 231 240 248 258 266 272 279 288 298 306 310 313 316 320 324 327 330 334 336
242 247 253 255 258 264 262 249 242 239 239 240 237 231 233 240 243 244 246 249 250 249 245 243 245 247 247 246 243 240 237 231 225 221 220 221 222 221 220 217 211 206 208 217 229 241 251 259 264 271 279 290 299 304 306 310 314 319 324 326 329 332 334
248 250 254 260 262 263 258 243 239 240 238 239 238 233 238 250 252 249 245 242 243 243 242 241 243 246 246 246 244 241 238 230 223 218 218 218 217 214 211 207 203 203 206 214 226 239 249 255 261 270 281 290 296 298 301 307 312 319 323 326 328 332 334
250 250 249 254 258 261 259 244 237 239 241 240 236 230 236 249 254 251 243 238 238 239 238 239 244 247 247 247 245 241 238 232 225 220 219 219 218 214 209 206 206 207 210 216 226 235 244 250 259 269 278 285 288 292 298 304 311 319 324 326 328 330 334
244 247 247 253 258 262 263 249 234 236 242 242 237 230 232 243 250 248 241 240 241 240 239 241 248 251 250 248 246 241 238 235 227 223 221 222 222 218 212 210 212 212 214 218 224 231 239 249 258 266 271 276 282 290 298 305 312 320 324 326 327 328 331
229 234 241 253 260 264 268 258 237 233 238 241 237 233 232 238 245 245 240 239 240 241 242 245 250 255 255 251 248 243 239 236 231 227 225 225 226 223 219 218 216 214 214 217 223 230 239 247 253 258 263 271 281 291 299 306 313 319 321 323 325 327 328
227 231 241 255 263 264 265 258 240 233 235 237 237 236 234 234 239 242 241 240 240 243 247 249 251 256 259 257 251 245 242 239 235 232 231 230 229 228 225 222 218 215 214 215 222 231 239 243 245 251 261 272 283 291 299 306 312 316 318 319 322 324 326
235 242 247 253 258 257 257 253 241 232 231 235 238 237 234 232 233 239 243 242 244 249 252 253 255 258 262 263 256 248 244 242 239 237 236 234 232 229 226 222 218 215 213 216 223 230 234 237 243 254 266 275 285 293 301 309 314 316 316 317 319 322 325
234 241 240 239 245 248 249 247 239 232 230 232 237 239 239 236 236 239 243 242 243 247 250 253 255 258 261 265 260 252 248 247 244 241 240 237 232 228 225 221 217 214 214 219 225 228 230 237 250 263 272 281 291 299 307 313 315 316 315 315 317 320 323
230 234 233 233 242 247 247 244 236 230 230 234 237 240 243 246 246 246 247 244 242 244 247 251 254 258 261 264 263 258 254 252 249 244 241 238 233 228 225 221 216 214 216 222 227 230 235 245 258 268 279 289 296 303 309 313 314 315 315 315 317 318 321
233 237 235 232 235 239 242 241 234 230 233 238 240 242 245 251 255 254 251 246 242 242 246 250 253 256 258 261 264 264 260 256 253 247 241 237 234 229 225 222 217 215 217 222 228 234 241 252 263 273 284 292 298 304 308 310 313 315 315 316 317 318 320
235 241 243 239 235 234 234 232 230 232 238 242 245 247 250 254 256 257 255 250 244 242 244 248 250 252 255 258 262 265 263 259 257 251 242 237 235 231 228 224 219 216 219 223 228 236 246 256 266 277 286 292 298 303 306 308 312 314 315 316 316 317 318
232 237 243 245 243 240 236 231 227 228 234 242 247 250 253 254 256 258 258 255 251 247 246 248 249 249 251 254 258 261 262 261 259 253 244 238 237 235 231 226 221 219 223 226 231 239 247 257 269 279 286 292 298 302 304 307 309 312 314 315 315 315 314
230 233 238 243 245 244 242 239 234 230 232 237 243 248 250 253 255 257 258 257 256 253 251 252 251 248 249 252 255 258 259 260 259 256 248 240 238 237 233 228 224 224 226 230 235 242 250 261 272 280 287 293 298 302 304 305 307 311 313 312 312 312 310
230 232 235 239 243 245 245 241 237 236 237 237 239 243 246 249 252 255 257 257 257 256 254 252 251 249 248 251 253 256 257 257 257 257 251 243 239 237 233 230 229 229 230 234 239 247 257 267 274 282 289 294 299 302 302 303 308 312 312 310 310 309 306
232 234 237 241 243 246 248 246 243 242 242 241 241 242 244 246 249 252 254 255 256 257 255 251 249 248 248 251 253 255 255 255 255 256 253 246 241 237 233 232 233 234 235 239 245 252 261 269 277 284 289 294 299 300 300 305 310 312 311 311 312 313 310
234 236 240 243 243 243 248 251 251 248 247 245 243 242 243 244 246 248 251 252 254 255 252 249 247 246 247 250 252 253 252 251 251 253 253 249 243 237 234 233 234 237 240 244 249 256 262 269 277 283 288 293 296 297 301 307 309 309 311 313 314 318 318
233 236 240 242 241 240 242 247 250 250 249 249 247 245 245 247 248 249 250 250 251 251 250 249 248 247 245 246 248 248 247 246 249 251 251 249 245 238 235 235 235 239 244 248 252 256 262 270 276 281 286 289 292 296 303 307 306 306 312 315 316 318 318
230 233 238 241 242 241 241 243 246 248 250 252 252 251 250 251 252 252 251 250 248 247 248 250 249 246 243 243 244 245 244 243 246 249 248 247 244 240 238 238 239 243 247 250 254 258 263 269 274 280 285 288 292 299 303 304 304 306 311 315 316 315 315
237 234 235 237 240 242 243 243 245 246 248 250 252 253 252 252 252 251 251 250 247 246 247 248 244 241 241 241 242 245 245 243 243 245 246 244 242 241 241 241 243 247 250 252 257 261 263 267 272 279 284 288 294 299 300 301 303 305 308 311 312 312 312
248 245 241 240 239 240 242 243 245 246 246 247 249 250 251 251 252 250 249 248 247 247 248 247 242 239 239 241 242 243 243 242 241 242 244 244 242 241 241 243 246 249 251 254 259 261 263 266 273 278 283 288 293 295 297 298 301 302 305 308 309 309 310
252 251 249 248 246 243 243 243 245 246 246 245 246 247 248 249 251 251 250 249 247 246 247 247 243 239 238 239 241 241 239 239 240 239 240 242 241 240 240 242 246 248 250 253 257 260 263 267 272 277 282 287 290 291 292 295 296 299 301 304 306 307 308
253 254 252 251 251 251 250 249 248 247 246 245 245 246 247 249 250 252 253 252 250 249 249 248 243 239 237 237 238 239 237 238 240 239 238 238 239 239 240 241 244 247 249 252 255 259 263 267 271 275 280 284 286 287 289 291 292 294 297 300 303 306 308
250 252 254 253 253 254 255 254 253 251 249 248 247 246 247 249 251 253 254 255 254 253 252 251 246 241 237 236 237 238 237 239 242 241 237 236 236 237 238 239 242 245 247 250 254 257 261 265 269 273 278 280 282 284 286 288 289 291 295 298 302 305 308
245 247 250 253 254 255 256 257 257 256 255 255 253 251 249 249 251 253 255 257 257 255 253 252 249 243 237 235 236 237 237 241 244 240 236 234 234 235 236 237 240 243 246 249 253 257 260 265 268 271 275 278 280 284 286 287 289 292 297 300 302 306 310
245 247 248 250 252 254 256 258 259 259 259 260 261 261 260 257 256 255 256 259 260 259 257 253 250 245 240 235 233 234 237 241 241 236 234 233 233 234 235 235 238 243 245 248 253 256 259 263 267 271 275 278 281 283 284 287 291 295 298 301 304 306 308
247 249 250 251 252 253 255 257 259 259 259 261 264 267 268 267 265 263 261 261 260 260 259 256 254 253 248 240 235 234 236 237 235 232 231 229 229 231 232 233 236 241 245 248 252 255 259 263 266 270 274 277 279 281 283 287 291 295 299 303 305 304 303
249 250 252 253 253 254 255 257 258 258 259 261 264 266 266 267 268 267 266 264 262 260 259 257 257 256 252 246 240 236 234 233 228 226 227 227 225 225 228 231 235 240 243 247 251 254 257 261 265 269 272 274 276 278 282 287 290 295 301 305 304 300 300
251 253 254 255 256 257 259 260 261 262 263 264 265 266 266 266 267 268 267 266 265 264 262 259 259 258 253 249 246 242 237 231 226 224 228 227 221 219 223 229 234 238 242 246 250 254 257 261 264 268 270 272 273 276 281 287 291 297 302 303 300 299 300
254 255 256 258 260 262 263 264 265 266 266 267 268 268 269 269 269 268 267 265 264 264 262 259 260 261 257 252 251 248 240 232 226 225 225 219 214 216 223 228 233 238 242 245 250 254 257 261 264 267 269 271 274 278 283 288 293 298 301 299 297 298 298
Height
5889 5890 5892 5892 5893 5894 5894 5896 5897 5898 5898 5899 5900 5900 5901 5902 5902 5903 5904 5904 5905 5906 5907 5908 5909 5910 5911 5912 5912 5913 5914 5915 5916 5916 5916 5916 5917 5917 5917 5918 5918 5918 5918 5918 5918 5918 5918 5918 5917 5918 5919 5919 5919 5918 5917 5916 5916 5915 5914 5913 5912 5910 5909
5886 5888 5889 5890 5891 5891 5892 5893 5895 5895 5896 5896 5897 5898 5899 5900 5900 5901 5901 5902 5902 5903 5904 5905 5906 5907 5908 5909 5910 5911 5912 5913 5913 5914 5914 5914 5914 5915 5915 5916 5916 5916 5916 5916 5916 5916 5916 5916 5916 5916 5917 5917 5918 5917 5916 5915 5914 5914 5913 5911 5910 5909 5907
5884 5886 5886 5887 5888 5890 5890 5891 5892 5893 5894 5894 5895 5896 5898 5898 5898 5899 5899 5899 5900 5900 5901 5902 5903 5904 5905 5906 5907 5908 5909 5910 5911 5912 5912 5912 5912 5912 5913 5914 5914 5914 5914 5914 5914 5914 5914 5915 5915 5915 5915 5916 5916 5915 5915 5914 5913 5912 5911 5910 5909 5907 5906
5882 5883 5884 5884 5885 5887 5887 5888 5889 5891 5892 5892 5893 5895 5896 5896 5896 5896 5897 5898 5898 5898 5899 5900 5900 5901 5901 5903 5904 5905 5906 5907 5908 5909 5909 5909 5909 5910 5911 5911 5912 5912 5912 5913 5913 5912 5912 5913 5914 5914 5914 5914 5914 5914 5913 5912 5911 5910 5909 5908 5907 5906 5904
5879 5881 5882 5882 5883 5884 5885 5886 5887 5888 5889 5890 5891 5892 5893 5894 5894 5895 5895 5896 5896 5897 5897 5897 5898 5898 5899 5900 5901 5902 5903 5904 5905 5906 5907 5907 5907 5907 5908 5909 5909 5910 5910 5911 5911 5911 5911 5911 5912 5912 5912 5912 5912 5911 5911 5910 5909 5908 5907 5906 5905 5904 5902
5877 5878 5878 5879 5880 5882 5883 5884 5885 5886 5886 5887 5889 5890 5891 5891 5892 5893 5893 5894 5895 5895 5895 5895 5896 5896 5897 5897 5898 5899 5900 5900 5902 5903 5903 5904 5904 5905 5905 5906 5907 5907 5908 5909 5909 5910 5910 5910 5910 5910 5910 5910 5910 5909 5909 5908 5907 5906 5905 5904 5903 5901 5900
5874 5875 5876 5876 5878 5879 5881 5882 5882 5883 5884 5885 5886 5887 5887 5888 5890 5891 5891 5892 5893 5893 5893 5894 5894 5894 5894 5895 5895 5896 5897 5897 5898 5899 5900 5900 5901 5902 5902 5903 5904 5905 5905 5906 5907 5908 5908 5908 5909 5909 5908 5908 5908 5907 5906 5906 5905 5904 5903 5902 5900 5899 5897
5872 5873 5874 5875 5876 5878 5878 5879 5880 5881 5882 5883 5883 5884 5885 5886 5887 5889 5889 5890 5891 5891 5891 5892 5892 5892 5893 5893 5893 5893 5894 5894 5895 5896 5897 5897 5898 5899 5900 5900 5901 5902 5903 5904 5905 5906 5906 5907 5907 5907 5906 5906 5906 5905 5904 5903 5903 5902 5901 5900 5898 5896 5894
5869 5871 5872 5873 5874 5876 5876 5877 5878 5879 5880 5880 5880 5881 5882 5884 5885 5886 5887 5888 5888 5889 5890 5890 5890 5891 5891 5891 5891 5891 5891 5892 5893 5893 5894 5894 5895 5896 5897 5898 5899 5900 5901 5901 5902 5903 5904 5905 5905 5905 5904 5904 5904 5903 5902 5901 5900 5899 5898 5897 5896 5894 5892
5865 5867 5869 5870 5871 5873 5874 5874 5875 5876 5877 5877 5877 5878 5879 5881 5882 5884 5885 5885 5886 5887 5888 5888 5889 5889 5890 5890 5890 5889 5890 5890 5890 5891 5891 5892 5892 5893 5894 5895 5896 5897 5898 5899 5900 5900 5901 5902 5902 5902 5902 5902 5902 5901 5900 5899 5898 5897 5896 5895 5893 5891 5889
5862 5863 5865 5867 5867 5869 5870 5871 5872 5872 5874 5874 5875 5875 5877 5878 5880 5881 5882 5883 5884 5885 5886 5886 5887 5887 5888 5888 5888 5888 5888 5888 5889 5889 5889 5889 5890 5890 5891 5893 5894 5895 5895 5897 5897 5898 5899 5899 5900 5900 5900 5900 5900 5899 5898 5897 5896 5894 5893 5892 5890 5889 5887
5858 5860 5861 5863 5864 5865 5867 5868 5869 5870 5871 5871 5872 5873 5874 5876 5877 5878 5880 5881 5881 5882 5883 5884 5885 5885 5886 5886 5886 5887 5887 5887 5887 5888 5887 5887 5887 5888 5889 5890 5891 5892 5893 5894 5895 5896 5896 5897 5897 5898 5898 5898 5897 5897 5896 5895 5894 5892 5890 5889 5888 5886 5885
5855 5856 5858 5859 5860 5861 5862 5864 5866 5867 5868 5869 5870 5871 5872 5874 5875 5876 5877 5879 5879 5880 5880 5881 5882 5883 5884 5884 5884 5885 5885 5885 5886 5886 5885 5885 5885 5886 5887 5888 5888 5889 5890 5891 5892 5893 5894 5895 5895 5895 5895 5895 5895 5894 5893 5892 5891 5890 5888 5887 5885 5884 5882
5850 5852 5854 5855 5856 5857 5858 5860 5862 5863 5864 5865 5867 5868 5870 5871 5872 5873 5874 5876 5877 5877 5878 5878 5879 5880 5881 5881 5882 5882 5883 5883 5883 5883 5883 5883 5883 5883 5884 5885 5886 5886 5887 5888 5890 5891 5891 5892 5893 5893 5893 5893 5893 5892 5891 5890 5889 5887 5886 5884 5883 5882 5880
5845 5847 5850 5851 5852 5854 5855 5857 5858 5859 5860 5862 5863 5865 5867 5868 5870 5871 5871 5873 5873 5874 5875 5876 5876 5877 5878 5879 5880 5880 5880 5880 5881 5881 5881 5881 5881 5881 5882 5882 5883 5883 5884 5886 5887 5888 5889 5889 5890 5890 5890 5890 5890 5889 5889 5887 5886 5885 5883 5881 5880 5879 5878
5841 5844 5845 5847 5849 5851 5852 5854 5855 5856 5857 5858 5860 5862 5863 5865 5867 5868 5869 5870 5871 5872 5873 5873 5874 5875 5876 5876 5877 5878 5877 5877 5878 5878 5879 5879 5879 5879 5879 5879 5880 5880 5882 5883 5884 5885 5886 5887 5887 5888 5888 5888 5887 5887 5886 5885 5883 5882 5880 5879 5877 5876 5875
5837 5839 5841 5843 5845 5848 5850 5851 5851 5852 5854 5855 5856 5858 5860 5862 5864 5865 5866 5867 5868 5869 5871 5871 5871 5872 5873 5874 5875 5874 5874 5874 5875 5875 5876 5876 5876 5876 5876 5876 5876 5877 5878 5880 5881 5882 5883 5884 5884 5885 5885 5885 5884 5883 5882 5881 5880 5879 5877 5876 5875 5874 5872
5833 5835 5837 5839 5842 5844 5847 5847 5848 5849 5850 5852 5853 5854 5856 5858 5860 5861 5863 5864 5865 5867 5867 5867 5868 5869 5870 5871 5871 5871 5871 5871 5872 5872 5873 5873 5873 5873 5873 5873 5873 5874 5876 5877 5877 5879 5880 5881 5881 5881 5881 5881 5880 5880 5879 5878 5877 5876 5874 5873 5872 5871 5869
5829 5830 5832 5835 5837 5840 5843 5844 5845 5846 5847 5848 5849 5851 5853 5854 5856 5858 5860 5861 5862 5863 5863 5864 5865 5866 5867 5868 5868 5868 5868 5868 5868 5869 5870 5870 5870 5870 5869 5870 5871 5872 5873 5874 5874 5875 5876 5877 5877 5878 5878 5878 5877 5876 5876 5875 5874 5873 5871 5870 5868 5867 5866
5826 5827 5828 5830 5833 5835 5837 5838 5840 5842 5844 5845 5846 5848 5849 5850 5851 5853 5855 5857 5858 5858 5859 5860 5861 5862 5863 5864 5865 5865 5865 5865 5865 5866 5867 5867 5866 5866 5866 5867 5868 5869 5870 5870 5871 5872 5873 5874 5874 5875 5875 5874 5874 5873 5873 5872 5871 5870 5868 5866 5864 5863 5862
5821 5823 5824 5825 5828 5830 5832 5833 5835 5837 5839 5841 5843 5844 5844 5845 5847 5849 5850 5851 5853 5854 5855 5856 5858 5858 5859 5860 5861 5862 5861 5861 5862 5862 5863 5863 5863 5862 5863 5864 5865 5865 5866 5867 5868 5869 5870 5870 5871 5871 5871 5871 5870 5870 5869 5868 5867 5866 5864 5863 5860 5859 5858
5816 5818 5819 5820 5822 5825 5827 5830 5831 5833 5834 5836 5837 5838 5839 5840 5842 5843 5844 5845 5847 5849 5851 5852 5853 5854 5855 5856 5857 5858 5858 5858 5858 5858 5859 5859 5859 5859 5860 5861 5861 5862 5863 5864 5865 5866 5867 5867 5868 5868 5868 5867 5867 5866 5865 5864 5863 5862 5861 5859 5857 5855 5853
5811 5812 5814 5815 5816 5819 5821 5824 5827 5829 5830 5831 5831 5832 5834 5836 5837 5837 5838 5840 5841 5844 5846 5847 5848 5850 5851 5852 5854 5854 5854 5854 5854 5854 5855 5856 5856 5857 5858 5858 5858 5859 5860 5861 5862 5862 5863 5864 5864 5864 5864 5864 5863 5862 5861 5860 5859 5858 5857 5855 5853 5850 5847
5808 5809 5810 5810 5812 5815 5816 5817 5820 5823 5825 5826 5827 5828 5830 5831 5832 5832 5833 5835 5837 5838 5840 5842 5844 5845 5847 5848 5850 5851 5851 5851 5850 5851 5852 5853 5853 5854 5855 5855 5855 5856 5856 5857 5858 5859 5859 5860 5860 5860 5860 5860 5859 5858 5857 5856 5855 5854 5853 5851 5849 5845 5842
5804 5805 5806 5808 5809 5811 5812 5813 5814 5817 5819 5820 5822 5824 5825 5825 5826 5827 5828 5830 5832 5833 5835 5837 5839 5841 5843 5844 5846 5847 5847 5847 5847 5847 5848 5849 5850 5851 5852 5852 5852 5852 5853 5853 5854 5855 5855 5855 5856 5856 5856 5856 5855 5853 5853 5852 5851 5850 5848 5847 5845 5842 5839
5801 5802 5802 5803 5805 5807 5809 5809 5810 5811 5812 5813 5816 5819 5820 5820 5820 5821 5823 5825 5827 5827 5829 5832 5835 5837 5838 5840 5841 5842 5843 5843 5843 5844 5844 5845 5846 5847 5847 5848 5848 5849 5849 5849 5850 5851 5851 5851 5851 5851 5851 5851 5850 5849 5849 5848 5846 5845 5844 5842 5840 5838 5836
5796 5797 5798 5799 5800 5802 5804 5805 5806 5807 5807 5808 5810 5812 5812 5813 5814 5816 5818 5820 5820 5821 5824 5827 5829 5830 5831 5833 5834 5835 5838 5839 5839 5839 5840 5841 5841 5842 5842 5843 5844 5845 5845 5845 5846 5846 5846 5846 5846 5846 5846 5846 5845 5845 5845 5843 5842 5840 5839 5837 5835 5833 5832
5790 5792 5793 5794 5795 5797 5799 5801 5802 5803 5804 5804 5804 5805 5805 5805 5806 5809 5812 5813 5814 5816 5819 5821 5821 5821 5823 5825 5827 5828 5830 5832 5834 5834 5834 5835 5835 5836 5837 5838 5839 5840 5840 5840 5841 5841 5841 5841 5841 5841 5841 5840 5840 5841 5840 5838 5837 5835 5834 5832 5831 5829 5827
5784 5785 5787 5788 5789 5791 5793 5795 5797 5798 5799 5799 5799 5799 5799 5798 5799 5802 5804 5805 5808 5811 5812 5812 5812 5813 5815 5817 5819 5821 5822 5825 5827 5828 5829 5829 5830 5830 5831 5833 5834 5834 5835 5835 5835 5836 5836 5836 5836 5836 5835 5835 5835 5835 5834 5833 5832 5830 5829 5828 5826 5824 5821
5777 5779 5780 5781 5782 5784 5787 5789 5790 5791 5791 5791 5792 5792 5792 5792 5793 5795 5797 5798 5800 5802 5803 5804 5805 5806 5807 5809 5811 5813 5815 5817 5820 5822 5823 5824 5825 5825 5826 5827 5828 5829 5829 5830 5830 5830 5831 5831 5831 5831 5830 5830 5829 5829 5829 5828 5827 5825 5824 5823 5821 5819 5816
5771 5772 5773 5774 5775 5777 5779 5781 5782 5783 5784 5784 5784 5784 5785 5786 5787 5789 5790 5791 5792 5793 5795 5797 5797 5798 5800 5802 5804 5806 5808 5810 5812 5815 5818 5819 5819 5820 5821 5822 5822 5823 5824 5825 5825 5826 5826 5826 5826 5825 5825 5825 5824 5824 5823 5822 5821 5820 5819 5818 5816 5813 5811
5765 5765 5766 5767 5768 5770 5772 5773 5774 5775 5777 5778 5778 5779 5780 5780 5781 5783 5783 5784 5784 5786 5787 5788 5789 5790 5792 5794 5796 5797 5799 5801 5804 5807 5811 5812 5813 5813 5814 5815 5816 5817 5818 5819 5820 5821 5821 5821 5820 5820 5820 5819 5818 5818 5817 5817 5815 5814 5814 5813 5810 5808 5804
5759 5759 5760 5761 5762 5763 5764 5765 5766 5767 5769 5771 5772 5774 5775 5776 5776 5777 5776 5776 5776 5778 5779 5779 5780 5780 5781 5782 5784 5786 5788 5790 5795 5799 5802 5804 5805 5806 5807 5809 5810 5811 5812 5814 5815 5815 5815 5815 5815 5815 5815 5814 5813 5812 5811 5811 5810 5809 5809 5807 5804 5802 5798
5752 5753 5754 5755 5756 5757 5757 5758 5759 5760 5762 5763 5765 5767 5769 5770 5770 5770 5770 5769 5769 5770 5770 5770 5769 5770 5770 5769 5770 5772 5775 5779 5784 5789 5793 5796 5797 5798 5799 5801 5803 5805 5806 5808 5809 5810 5810 5810 5810 5809 5809 5808 5807 5806 5805 5805 5805 5805 5803 5801 5798 5796 5793
5747 5748 5748 5749 5750 5751 5752 5752 5753 5754 5755 5757 5759 5760 5761 5761 5761 5761 5762 5762 5761 5762 5762 5760 5759 5761 5762 5760 5757 5756 5759 5765 5773 5778 5781 5784 5787 5788 5791 5794 5796 5798 5800 5801 5803 5804 5804 5804 5803 5803 5803 5802 5801 5800 5800 5800 5800 5800 5797 5795 5792 5790 5788
5741 5742 5742 5743 5744 5745 5746 5746 5747 5748 5749 5751 5753 5754 5754 5753 5753 5753 5752 5751 5751 5753 5753 5752 5750 5751 5752 5750 5748 5748 5750 5755 5761 5765 5768 5772 5776 5779 5783 5787 5790 5791 5793 5795 5796 5797 5797 5797 5797 5796 5796 5795 5794 5794 5794 5794 5794 5793 5791 5788 5786 5785 5783
5735 5736 5737 5737 5738 5739 5739 5740 5741 5742 5744 5745 5746 5745 5745 5745 5745 5744 5742 5740 5740 5742 5743 5742 5739 5738 5737 5738 5740 5745 5750 5750 5751 5755 5761 5766 5769 5771 5775 5780 5782 5784 5787 5788 5789 5790 5790 5790 5790 5790 5789 5788 5787 5787 5788 5788 5787 5786 5784 5783 5781 5780 5778
5730 5730 5731 5732 5733 5733 5733 5734 5735 5736 5737 5738 5738 5737 5737 5737 5737 5735 5732 5729 5729 5730 5731 5730 5728 5725 5726 5728 5731 5737 5744 5746 5747 5752 5757 5760 5762 5764 5769 5772 5775 5778 5780 5782 5783 5784 5784 5784 5784 5783 5782 5781 5782 5782 5783 5782 5782 5780 5779 5777 5776 5775 5773